ICEYE-X35 (58302 NORAD) Tracking and Keplerian Element Data

This shows tracking and keplerian element data for the satellite.

Feedback or suggestion? Click here.




ElementValue
Catalog58302
NameICEYE-X35
Epoch Orbit6891
Epoch Day35.1721064
Epoch Year2025
RAAN112.2173
Inclination97.428
Eccentricity0.0016022
Argument of Perigee176.2756
Mean Anonmoly183.8603
Mean Motion15.23428251
Decay Rate0.00020346
L11 58302U 23174AY 25035.17210640 .00020346 00000+0 85279-3 0 9999
L22 58302 97.4280 112.2173 0016022 176.2756 183.8603 15.23428251 68918



Live tracking and technical data element details for ICEYE-X35 (NORAD 58302). ICEYE-X35 can be tracked NOW for your location showing map with azimuth and elevation plus other details from your city location.







IsCatalogInMostPopularTable: catalog: 58302, numindb: 34
Update: records affected: 1



GetName: 58302 ICEYE-X35

Hit Count: updated at: Wed, 18 Jun 2025 05:51:16 GMT